| time (UTC) | temp F | wind direction | speed MPH | gust MPH | rain 1hr in | rain 24hr in | rain mn in | humidity % | barometer mb |
| 20260507062517 | 60 | 0 | 0.0 | 0.0 | 0.00 | 0.00 | 0.00 | 79 | 1017.7 |
| 20260507062017 | 60 | 0 | 0.0 | 0.0 | 0.00 | 0.00 | 0.00 | 79 | 1017.6 |
| 20260507061537 | 61 | 0 | 0.0 | 0.0 | 0.00 | 0.00 | 0.00 | 79 | 1017.7 |
| 20260507061023 | 61 | 0 | 0.0 | 0.0 | 0.00 | 0.00 | 0.00 | 78 | 1017.7 |
| 20260507060520 | 61 | 0 | 0.0 | 0.0 | 0.00 | 0.00 | 0.00 | 77 | 1017.7 |
| 20260507060035 | 61 | 0 | 0.0 | 0.0 | 0.00 | 0.00 | 0.00 | 77 | 1017.6 |
| 20260507055518 | 61 | 0 | 0.0 | 0.0 | 0.00 | 0.00 | 0.00 | 77 | 1017.7 |
| 20260507055019 | 61 | 0 | 0.0 | 0.0 | 0.00 | 0.00 | 0.00 | 77 | 1017.7 |
| 20260507054540 | 62 | 0 | 0.0 | 0.0 | 0.00 | 0.00 | 0.00 | 77 | 1017.6 |
| 20260507054018 | 62 | 0 | 0.0 | 0.0 | 0.00 | 0.00 | 0.00 | 76 | 1017.7 |
| 20260507053518 | 62 | 0 | 0.0 | 0.0 | 0.00 | 0.00 | 0.00 | 76 | 1017.6 |
| 20260507053035 | 62 | 0 | 0.0 | 0.0 | 0.00 | 0.00 | 0.00 | 76 | 1017.6 |
| 20260507052517 | 62 | 0 | 0.0 | 0.0 | 0.00 | 0.00 | 0.00 | 76 | 1017.7 |
| 20260507052018 | 62 | 0 | 0.0 | 0.0 | 0.00 | 0.00 | 0.00 | 76 | 1017.6 |
| 20260507051535 | 62 | 0 | 0.0 | 0.0 | 0.00 | 0.00 | 0.00 | 76 | 1017.5 |
| 20260507051018 | 62 | 0 | 0.0 | 0.0 | 0.00 | 0.00 | 0.00 | 75 | 1017.5 |
| 20260507050520 | 62 | 0 | 0.0 | 0.0 | 0.00 | 0.00 | 0.00 | 75 | 1017.5 |
| 20260507050040 | 63 | 0 | 0.0 | 0.0 | 0.00 | 0.00 | 0.00 | 75 | 1017.4 |
| 20260507045517 | 63 | 0 | 0.0 | 0.0 | 0.00 | 0.00 | 0.00 | 75 | 1017.4 |
| 20260507045017 | 63 | 0 | 0.0 | 0.0 | 0.00 | 0.00 | 0.00 | 74 | 1017.4 |
| 20260507044540 | 63 | 0 | 0.0 | 0.0 | 0.00 | 0.00 | 0.00 | 74 | 1017.4 |
| 20260507044018 | 63 | 0 | 0.0 | 0.0 | 0.00 | 0.00 | 0.00 | 74 | 1017.3 |
| 20260507043520 | 63 | 0 | 0.0 | 0.0 | 0.00 | 0.00 | 0.00 | 73 | 1017.4 |
| 20260507043036 | 64 | 0 | 0.0 | 0.0 | 0.00 | 0.00 | 0.00 | 73 | 1017.3 |
| 20260507042518 | 64 | 0 | 0.0 | 0.0 | 0.00 | 0.00 | 0.00 | 73 | 1017.3 |
| 20260507042017 | 64 | 0 | 0.0 | 0.0 | 0.00 | 0.00 | 0.00 | 73 | 1017.3 |
| 20260507041543 | 64 | 0 | 0.0 | 0.0 | 0.00 | 0.00 | 0.00 | 72 | 1017.2 |
| 20260507041018 | 64 | 0 | 0.0 | 3.0 | 0.00 | 0.00 | 0.00 | 71 | 1017.2 |
| 20260507040518 | 64 | 0 | 0.0 | 3.0 | 0.00 | 0.00 | 0.00 | 71 | 1017.2 |
| 20260507040035 | 64 | 0 | 0.0 | 4.0 | 0.00 | 0.00 | 0.00 | 71 | 1017.1 |
| 20260507035517 | 64 | 0 | 0.0 | 6.0 | 0.00 | 0.00 | 0.00 | 71 | 1017.1 |
| 20260507035017 | 65 | 210 | 1.0 | 6.0 | 0.00 | 0.00 | 0.00 | 70 | 1017.0 |
| 20260507034535 | 65 | 0 | 1.0 | 6.0 | 0.00 | 0.00 | 0.00 | 70 | 1016.8 |
| 20260507034018 | 65 | 0 | 0.0 | 5.0 | 0.00 | 0.00 | 0.00 | 70 | 1017.0 |
| 20260507033520 | 65 | 210 | 2.0 | 5.0 | 0.00 | 0.00 | 0.00 | 69 | 1016.7 |
| 20260507033036 | 65 | 0 | 1.0 | 6.0 | 0.00 | 0.00 | 0.00 | 69 | 1016.7 |
| 20260507032519 | 65 | 0 | 0.0 | 6.0 | 0.00 | 0.00 | 0.00 | 68 | 1016.7 |
| 20260507032018 | 66 | 211 | 1.0 | 6.0 | 0.00 | 0.00 | 0.00 | 68 | 1016.6 |
| 20260507031535 | 66 | 0 | 0.0 | 7.0 | 0.00 | 0.00 | 0.00 | 68 | 1016.6 |
| 20260507031020 | 66 | 211 | 2.0 | 7.0 | 0.00 | 0.00 | 0.00 | 67 | 1016.5 |
| 20260507030519 | 66 | 211 | 2.0 | 7.0 | 0.00 | 0.00 | 0.00 | 67 | 1016.4 |
| 20260507030035 | 67 | 212 | 2.0 | 7.0 | 0.00 | 0.00 | 0.00 | 66 | 1016.4 |
| 20260507025517 | 67 | 215 | 0.0 | 7.0 | 0.00 | 0.00 | 0.00 | 66 | 1016.4 |
| 20260507025017 | 67 | 215 | 1.0 | 8.0 | 0.00 | 0.00 | 0.00 | 65 | 1016.4 |
| 20260507024537 | 67 | 208 | 1.0 | 8.0 | 0.00 | 0.00 | 0.00 | 65 | 1016.3 |
| 20260507024017 | 67 | 217 | 2.0 | 8.0 | 0.00 | 0.00 | 0.00 | 65 | 1016.2 |
| 20260507023525 | 68 | 213 | 1.0 | 8.0 | 0.00 | 0.00 | 0.00 | 64 | 1016.2 |
| 20260507023040 | 68 | 219 | 2.0 | 10.0 | 0.00 | 0.00 | 0.00 | 64 | 1016.2 |
| 20260507022517 | 68 | 209 | 4.0 | 10.0 | 0.00 | 0.00 | 0.00 | 64 | 1016.2 |
| 20260507022018 | 69 | 242 | 2.0 | 8.0 | 0.00 | 0.00 | 0.00 | 63 | 1016.1 |
| 20260507021535 | 69 | 0 | 2.0 | 8.0 | 0.00 | 0.00 | 0.00 | 63 | 1016.1 |
| 20260507021022 | 69 | 234 | 4.0 | 10.0 | 0.00 | 0.00 | 0.00 | 62 | 1016.0 |
| 20260507020519 | 70 | 220 | 4.0 | 10.0 | 0.00 | 0.00 | 0.00 | 61 | 1016.0 |
| 20260507020043 | 71 | 212 | 3.0 | 10.0 | 0.00 | 0.00 | 0.00 | 60 | 1015.9 |
| 20260507015517 | 71 | 225 | 4.0 | 10.0 | 0.00 | 0.00 | 0.00 | 60 | 1015.9 |
| 20260507015034 | 72 | 213 | 4.0 | 11.0 | 0.00 | 0.00 | 0.00 | 59 | 1015.9 |
| 20260507014542 | 72 | 238 | 4.0 | 11.0 | 0.00 | 0.00 | 0.00 | 59 | 1015.9 |
| 20260507014017 | 72 | 214 | 3.0 | 11.0 | 0.00 | 0.00 | 0.00 | 58 | 1015.9 |
| 20260507013519 | 73 | 227 | 4.0 | 11.0 | 0.00 | 0.00 | 0.00 | 58 | 1015.9 |
| 20260507013037 | 73 | 236 | 5.0 | 11.0 | 0.00 | 0.00 | 0.00 | 57 | 1015.9 |
| 20260507012517 | 73 | 219 | 3.0 | 11.0 | 0.00 | 0.00 | 0.00 | 57 | 1015.7 |
| 20260507012017 | 73 | 210 | 5.0 | 11.0 | 0.00 | 0.00 | 0.00 | 56 | 1015.9 |
| 20260507011536 | 74 | 204 | 5.0 | 10.0 | 0.00 | 0.00 | 0.00 | 56 | 1015.7 |
| 20260507011017 | 74 | 216 | 4.0 | 11.0 | 0.00 | 0.00 | 0.00 | 56 | 1015.7 |
| 20260507010517 | 74 | 207 | 3.0 | 12.0 | 0.00 | 0.00 | 0.00 | 56 | 1015.7 |
| 20260507010036 | 74 | 240 | 5.0 | 12.0 | 0.00 | 0.00 | 0.00 | 55 | 1015.6 |
| 20260507005519 | 74 | 250 | 4.0 | 12.0 | 0.00 | 0.00 | 0.00 | 55 | 1015.6 |
| 20260507005020 | 75 | 0 | 5.0 | 12.0 | 0.00 | 0.00 | 0.00 | 54 | 1015.5 |
| 20260507004538 | 75 | 240 | 5.0 | 11.0 | 0.00 | 0.00 | 0.00 | 53 | 1015.6 |
| 20260507004017 | 75 | 255 | 6.0 | 11.0 | 0.00 | 0.00 | 0.00 | 53 | 1015.6 |
| 20260507003518 | 75 | 253 | 4.0 | 10.0 | 0.00 | 0.00 | 0.00 | 54 | 1015.6 |
| 20260507003039 | 76 | 223 | 5.0 | 12.0 | 0.00 | 0.00 | 0.00 | 53 | 1015.6 |
| 20260507002519 | 75 | 236 | 3.0 | 12.0 | 0.00 | 0.00 | 0.00 | 54 | 1015.5 |
| 20260507002018 | 75 | 235 | 6.0 | 16.0 | 0.00 | 0.00 | 0.00 | 53 | 1015.5 |
| 20260507001535 | 75 | 253 | 3.0 | 16.0 | 0.00 | 0.00 | 0.00 | 53 | 1015.5 |
| 20260507001017 | 75 | 241 | 5.0 | 12.0 | 0.00 | 0.00 | 0.00 | 53 | 1015.5 |
| 20260507000517 | 75 | 225 | 3.0 | 14.0 | 0.00 | 0.00 | 0.00 | 52 | 1015.5 |
| 20260507000033 | 75 | 213 | 6.0 | 14.0 | 0.00 | 0.00 | 0.00 | 53 | 1015.4 |
| 20260506235517 | 76 | 235 | 4.0 | 13.0 | 0.00 | 0.00 | 0.00 | 52 | 1015.4 |
| 20260506235017 | 76 | 227 | 5.0 | 13.0 | 0.00 | 0.00 | 0.00 | 52 | 1015.3 |
| 20260506234538 | 76 | 225 | 4.0 | 11.0 | 0.00 | 0.00 | 0.00 | 51 | 1015.3 |
| 20260506234016 | 76 | 228 | 6.0 | 13.0 | 0.00 | 0.00 | 0.00 | 51 | 1015.4 |
| 20260506233518 | 75 | 232 | 6.0 | 13.0 | 0.00 | 0.00 | 0.00 | 51 | 1015.4 |
| 20260506233035 | 76 | 247 | 5.0 | 12.0 | 0.00 | 0.00 | 0.00 | 50 | 1015.4 |
| 20260506232517 | 76 | 261 | 5.0 | 12.0 | 0.00 | 0.00 | 0.00 | 50 | 1015.4 |
| 20260506232018 | 76 | 253 | 6.0 | 12.0 | 0.00 | 0.00 | 0.00 | 50 | 1015.3 |
| 20260506231546 | 76 | 240 | 5.0 | 12.0 | 0.00 | 0.00 | 0.00 | 49 | 1015.4 |
| 20260506231017 | 76 | 222 | 5.0 | 11.0 | 0.00 | 0.00 | 0.00 | 51 | 1015.3 |
| 20260506230518 | 76 | 0 | 6.0 | 12.0 | 0.00 | 0.00 | 0.00 | 51 | 1015.3 |
| 20260506230052 | 76 | 232 | 6.0 | 12.0 | 0.00 | 0.00 | 0.00 | 50 | 1015.3 |
| 20260506225520 | 76 | 200 | 3.0 | 15.0 | 0.00 | 0.00 | 0.00 | 50 | 1015.4 |
| 20260506225017 | 76 | 250 | 5.0 | 15.0 | 0.00 | 0.00 | 0.00 | 51 | 1015.5 |
| 20260506224538 | 77 | 219 | 8.0 | 13.0 | 0.00 | 0.00 | 0.00 | 51 | 1015.6 |
| 20260506224016 | 77 | 260 | 5.0 | 12.0 | 0.00 | 0.00 | 0.00 | 50 | 1015.5 |
| 20260506223517 | 76 | 200 | 5.0 | 14.0 | 0.00 | 0.00 | 0.00 | 52 | 1015.6 |
| 20260506223047 | 76 | 267 | 6.0 | 14.0 | 0.00 | 0.00 | 0.00 | 51 | 1015.6 |
| 20260506222518 | 76 | 298 | 4.0 | 13.0 | 0.00 | 0.00 | 0.00 | 51 | 1015.7 |
| 20260506222020 | 76 | 221 | 5.0 | 13.0 | 0.00 | 0.00 | 0.00 | 51 | 1015.8 |
| 20260506221535 | 76 | 264 | 4.0 | 13.0 | 0.00 | 0.00 | 0.00 | 52 | 1015.9 |
| 20260506221019 | 76 | 271 | 6.0 | 13.0 | 0.00 | 0.00 | 0.00 | 53 | 1016.0 |
| 20260506220521 | 76 | 219 | 5.0 | 15.0 | 0.00 | 0.00 | 0.00 | 53 | 1016.1 |
| 20260506220033 | 76 | 269 | 7.0 | 15.0 | 0.00 | 0.00 | 0.00 | 52 | 1016.1 |
| 20260506215523 | 76 | 228 | 5.0 | 14.0 | 0.00 | 0.00 | 0.00 | 53 | 1016.2 |
| 20260506215018 | 76 | 227 | 7.0 | 14.0 | 0.00 | 0.00 | 0.00 | 52 | 1016.3 |
| 20260506214536 | 76 | 242 | 3.0 | 14.0 | 0.00 | 0.00 | 0.00 | 52 | 1016.3 |
| 20260506214018 | 76 | 216 | 6.0 | 14.0 | 0.00 | 0.00 | 0.00 | 53 | 1016.4 |
| 20260506213520 | 77 | 275 | 4.0 | 11.0 | 0.00 | 0.00 | 0.00 | 53 | 1016.3 |
| 20260506213045 | 77 | 238 | 3.0 | 11.0 | 0.00 | 0.00 | 0.00 | 52 | 1016.4 |
| 20260506212518 | 77 | 233 | 3.0 | 11.0 | 0.00 | 0.00 | 0.00 | 52 | 1016.5 |
| 20260506212018 | 77 | 213 | 4.0 | 10.0 | 0.00 | 0.00 | 0.00 | 52 | 1016.5 |
| 20260506211547 | 76 | 232 | 2.0 | 10.0 | 0.00 | 0.00 | 0.00 | 53 | 1016.5 |
| 20260506211018 | 76 | 225 | 4.0 | 11.0 | 0.00 | 0.00 | 0.00 | 53 | 1016.6 |
| 20260506210517 | 76 | 273 | 5.0 | 12.0 | 0.00 | 0.00 | 0.00 | 53 | 1016.6 |
| 20260506210036 | 75 | 213 | 3.0 | 13.0 | 0.00 | 0.00 | 0.00 | 53 | 1016.6 |
| 20260506205517 | 75 | 255 | 3.0 | 13.0 | 0.00 | 0.00 | 0.00 | 52 | 1016.6 |
| 20260506205018 | 75 | 261 | 5.0 | 13.0 | 0.00 | 0.00 | 0.00 | 50 | 1016.7 |
| 20260506204541 | 75 | 236 | 5.0 | 12.0 | 0.00 | 0.00 | 0.00 | 51 | 1016.8 |
| 20260506204018 | 75 | 206 | 2.0 | 12.0 | 0.00 | 0.00 | 0.00 | 50 | 1016.7 |
| 20260506203518 | 75 | 246 | 5.0 | 12.0 | 0.00 | 0.00 | 0.00 | 50 | 1016.8 |
| 20260506203035 | 74 | 252 | 5.0 | 11.0 | 0.00 | 0.00 | 0.00 | 50 | 1016.8 |
| 20260506202520 | 74 | 196 | 5.0 | 11.0 | 0.00 | 0.00 | 0.00 | 51 | 1016.8 |
| 20260506202017 | 74 | 257 | 3.0 | 9.0 | 0.00 | 0.00 | 0.00 | 51 | 1016.8 |
| 20260506201550 | 74 | 0 | 2.0 | 10.0 | 0.00 | 0.00 | 0.00 | 50 | 1017.0 |
| 20260506201018 | 74 | 200 | 4.0 | 10.0 | 0.00 | 0.00 | 0.00 | 53 | 1017.1 |
| 20260506200517 | 74 | 0 | 3.0 | 10.0 | 0.00 | 0.00 | 0.00 | 53 | 1017.2 |
| 20260506200035 | 74 | 229 | 1.0 | 10.0 | 0.00 | 0.00 | 0.00 | 51 | 1017.3 |
| 20260506195518 | 73 | 217 | 3.0 | 10.0 | 0.00 | 0.00 | 0.00 | 52 | 1017.3 |
| 20260506195018 | 73 | 226 | 2.0 | 10.0 | 0.00 | 0.00 | 0.00 | 52 | 1017.4 |
| 20260506194536 | 73 | 0 | 1.0 | 10.0 | 0.00 | 0.00 | 0.00 | 52 | 1017.4 |
| 20260506194017 | 73 | 211 | 2.0 | 7.0 | 0.00 | 0.00 | 0.00 | 55 | 1017.5 |
| 20260506193517 | 72 | 0 | 2.0 | 9.0 | 0.00 | 0.00 | 0.00 | 53 | 1017.5 |
| 20260506193033 | 72 | 0 | 2.0 | 11.0 | 0.00 | 0.00 | 0.00 | 53 | 1017.6 |
| 20260506192517 | 72 | 0 | 3.0 | 11.0 | 0.00 | 0.00 | 0.00 | 54 | 1017.7 |
| 20260506192019 | 72 | 248 | 6.0 | 9.0 | 0.00 | 0.00 | 0.00 | 55 | 1017.7 |
| 20260506191540 | 71 | 224 | 1.0 | 12.0 | 0.00 | 0.00 | 0.00 | 55 | 1017.8 |
| 20260506191020 | 71 | 198 | 4.0 | 12.0 | 0.00 | 0.00 | 0.00 | 54 | 1017.9 |
| 20260506190525 | 71 | 223 | 4.0 | 11.0 | 0.00 | 0.00 | 0.00 | 56 | 1017.9 |
| 20260506190036 | 71 | 239 | 4.0 | 12.0 | 0.00 | 0.00 | 0.00 | 57 | 1017.9 |
| 20260506185516 | 70 | 265 | 5.0 | 12.0 | 0.00 | 0.00 | 0.00 | 56 | 1018.1 |
| 20260506185019 | 70 | 250 | 5.0 | 13.0 | 0.00 | 0.00 | 0.00 | 57 | 1018.1 |
| 20260506184532 | 70 | 267 | 6.0 | 13.0 | 0.00 | 0.00 | 0.00 | 55 | 1018.2 |
| 20260506184019 | 70 | 245 | 4.0 | 10.0 | 0.00 | 0.00 | 0.00 | 56 | 1018.2 |
| 20260506183518 | 70 | 272 | 2.0 | 11.0 | 0.00 | 0.00 | 0.00 | 57 | 1018.3 |
| 20260506183042 | 69 | 227 | 2.0 | 11.0 | 0.00 | 0.00 | 0.00 | 58 | 1018.2 |
| 20260506182519 | 69 | 268 | 4.0 | 12.0 | 0.00 | 0.00 | 0.00 | 57 | 1018.3 |
| 20260506182017 | 69 | 260 | 6.0 | 12.0 | 0.00 | 0.00 | 0.00 | 57 | 1018.4 |
| 20260506181537 | 69 | 269 | 4.0 | 11.0 | 0.00 | 0.00 | 0.00 | 58 | 1018.3 |
| 20260506181020 | 69 | 284 | 5.0 | 11.0 | 0.00 | 0.00 | 0.00 | 58 | 1018.3 |
| 20260506180517 | 69 | 304 | 3.0 | 11.0 | 0.00 | 0.00 | 0.00 | 58 | 1018.3 |
| 20260506180037 | 68 | 0 | 4.0 | 11.0 | 0.00 | 0.00 | 0.00 | 57 | 1018.3 |
| 20260506175519 | 68 | 217 | 3.0 | 12.0 | 0.00 | 0.00 | 0.00 | 58 | 1018.3 |
| 20260506175019 | 68 | 245 | 6.0 | 12.0 | 0.00 | 0.00 | 0.00 | 58 | 1018.4 |
| 20260506174540 | 68 | 249 | 3.0 | 12.0 | 0.00 | 0.00 | 0.00 | 59 | 1018.4 |
| 20260506174021 | 68 | 241 | 4.0 | 11.0 | 0.00 | 0.00 | 0.00 | 59 | 1018.4 |
| 20260506173517 | 68 | 269 | 5.0 | 11.0 | 0.00 | 0.00 | 0.00 | 59 | 1018.4 |
| 20260506173034 | 68 | 219 | 4.0 | 10.0 | 0.00 | 0.00 | 0.00 | 61 | 1018.3 |
| 20260506172517 | 67 | 275 | 2.0 | 9.0 | 0.00 | 0.00 | 0.00 | 62 | 1018.4 |
| 20260506172018 | 67 | 266 | 0.0 | 9.0 | 0.00 | 0.00 | 0.00 | 63 | 1018.4 |
| 20260506171538 | 67 | 272 | 4.0 | 9.0 | 0.00 | 0.00 | 0.00 | 62 | 1018.5 |
| 20260506171021 | 67 | 0 | 1.0 | 9.0 | 0.00 | 0.00 | 0.00 | 64 | 1018.5 |
| 20260506170519 | 66 | 271 | 2.0 | 9.0 | 0.00 | 0.00 | 0.00 | 63 | 1018.5 |
| 20260506170057 | 66 | 232 | 2.0 | 9.0 | 0.00 | 0.00 | 0.00 | 64 | 1018.4 |
| 20260506165517 | 66 | 247 | 0.0 | 9.0 | 0.00 | 0.00 | 0.00 | 64 | 1018.4 |
| 20260506165017 | 66 | 247 | 5.0 | 9.0 | 0.00 | 0.00 | 0.00 | 66 | 1018.4 |
| 20260506164536 | 65 | 0 | 0.0 | 7.0 | 0.00 | 0.00 | 0.00 | 65 | 1018.4 |
| 20260506164023 | 65 | 0 | 0.0 | 7.0 | 0.00 | 0.00 | 0.00 | 66 | 1018.5 |
| 20260506163517 | 65 | 0 | 1.0 | 7.0 | 0.00 | 0.00 | 0.00 | 65 | 1018.5 |
| 20260506163035 | 65 | 0 | 0.0 | 0.0 | 0.00 | 0.00 | 0.00 | 68 | 1018.5 |
| 20260506162523 | 64 | 0 | 0.0 | 0.0 | 0.00 | 0.00 | 0.00 | 67 | 1018.6 |
| 20260506162024 | 65 | 0 | 0.0 | 0.0 | 0.00 | 0.00 | 0.00 | 65 | 1018.6 |
| 20260506161539 | 65 | 0 | 0.0 | 0.0 | 0.00 | 0.00 | 0.00 | 65 | 1018.6 |
| 20260506161019 | 65 | 0 | 0.0 | 0.0 | 0.00 | 0.00 | 0.00 | 66 | 1018.6 |
| 20260506160520 | 65 | 0 | 0.0 | 0.0 | 0.00 | 0.00 | 0.00 | 66 | 1018.5 |
| 20260506160040 | 64 | 0 | 0.0 | 0.0 | 0.00 | 0.00 | 0.00 | 66 | 1018.7 |
| 20260506155520 | 64 | 0 | 0.0 | 0.0 | 0.00 | 0.00 | 0.00 | 67 | 1018.7 |
| 20260506155017 | 64 | 0 | 0.0 | 0.0 | 0.00 | 0.00 | 0.00 | 68 | 1018.6 |
| 20260506154536 | 63 | 0 | 0.0 | 0.0 | 0.00 | 0.00 | 0.00 | 70 | 1018.7 |
| 20260506154019 | 63 | 0 | 0.0 | 0.0 | 0.00 | 0.00 | 0.00 | 70 | 1018.7 |
| 20260506153519 | 62 | 0 | 0.0 | 0.0 | 0.00 | 0.00 | 0.00 | 72 | 1018.7 |
| 20260506153035 | 62 | 0 | 0.0 | 0.0 | 0.00 | 0.00 | 0.00 | 73 | 1018.8 |
| 20260506152518 | 61 | 0 | 0.0 | 0.0 | 0.00 | 0.00 | 0.00 | 74 | 1018.7 |
| 20260506152021 | 60 | 0 | 0.0 | 0.0 | 0.00 | 0.00 | 0.00 | 75 | 1018.7 |
| 20260506151537 | 59 | 0 | 0.0 | 0.0 | 0.00 | 0.00 | 0.00 | 77 | 1018.7 |
| 20260506151017 | 59 | 0 | 0.0 | 0.0 | 0.00 | 0.00 | 0.00 | 79 | 1018.6 |
| 20260506150517 | 58 | 0 | 0.0 | 0.0 | 0.00 | 0.00 | 0.00 | 81 | 1018.6 |
| 20260506150032 | 57 | 0 | 0.0 | 0.0 | 0.00 | 0.00 | 0.00 | 82 | 1018.6 |
| 20260506145518 | 56 | 0 | 0.0 | 0.0 | 0.00 | 0.00 | 0.00 | 84 | 1018.6 |
| 20260506145018 | 55 | 0 | 0.0 | 3.0 | 0.00 | 0.00 | 0.00 | 86 | 1018.7 |
| 20260506144543 | 54 | 0 | 0.0 | 3.0 | 0.00 | 0.00 | 0.00 | 87 | 1018.6 |
| 20260506144020 | 54 | 0 | 0.0 | 4.0 | 0.00 | 0.00 | 0.00 | 87 | 1018.7 |
| 20260506143518 | 53 | 0 | 0.0 | 4.0 | 0.00 | 0.00 | 0.00 | 88 | 1018.6 |
| 20260506143035 | 52 | 0 | 0.0 | 0.0 | 0.00 | 0.00 | 0.00 | 89 | 1018.6 |
| 20260506142520 | 52 | 0 | 0.0 | 0.0 | 0.00 | 0.00 | 0.00 | 88 | 1018.5 |
| 20260506142019 | 52 | 0 | 0.0 | 0.0 | 0.00 | 0.00 | 0.00 | 88 | 1018.6 |
| 20260506141535 | 52 | 0 | 0.0 | 0.0 | 0.00 | 0.00 | 0.00 | 89 | 1018.6 |
| 20260506141021 | 51 | 0 | 0.0 | 0.0 | 0.00 | 0.00 | 0.00 | 89 | 1018.6 |
| 20260506140518 | 51 | 0 | 0.0 | 0.0 | 0.00 | 0.00 | 0.00 | 90 | 1018.5 |
| 20260506140035 | 50 | 0 | 0.0 | 0.0 | 0.00 | 0.00 | 0.00 | 92 | 1018.6 |
| 20260506135517 | 49 | 0 | 0.0 | 0.0 | 0.00 | 0.00 | 0.00 | 93 | 1018.6 |
| 20260506135018 | 49 | 0 | 0.0 | 0.0 | 0.00 | 0.00 | 0.00 | 92 | 1018.6 |
| 20260506134536 | 48 | 0 | 0.0 | 0.0 | 0.00 | 0.00 | 0.00 | 92 | 1018.6 |
| 20260506134017 | 48 | 0 | 0.0 | 0.0 | 0.00 | 0.00 | 0.00 | 92 | 1018.5 |
| 20260506133517 | 48 | 0 | 0.0 | 0.0 | 0.00 | 0.00 | 0.00 | 92 | 1018.5 |
| 20260506133032 | 48 | 0 | 0.0 | 0.0 | 0.00 | 0.00 | 0.00 | 91 | 1018.4 |
| 20260506132518 | 48 | 0 | 0.0 | 0.0 | 0.00 | 0.00 | 0.00 | 91 | 1018.4 |
| 20260506132022 | 48 | 0 | 0.0 | 0.0 | 0.00 | 0.00 | 0.00 | 91 | 1018.2 |
| 20260506131537 | 48 | 0 | 0.0 | 0.0 | 0.00 | 0.00 | 0.00 | 91 | 1018.3 |
| 20260506131019 | 48 | 0 | 0.0 | 0.0 | 0.00 | 0.00 | 0.00 | 91 | 1018.2 |
| 20260506130520 | 48 | 0 | 0.0 | 0.0 | 0.00 | 0.00 | 0.00 | 91 | 1018.1 |
| 20260506130036 | 48 | 0 | 0.0 | 0.0 | 0.00 | 0.00 | 0.00 | 91 | 1018.1 |
| 20260506125518 | 48 | 0 | 0.0 | 0.0 | 0.00 | 0.00 | 0.00 | 91 | 1018.0 |
| 20260506125021 | 48 | 0 | 0.0 | 0.0 | 0.00 | 0.00 | 0.00 | 91 | 1018.0 |
| 20260506124535 | 48 | 0 | 0.0 | 0.0 | 0.00 | 0.00 | 0.00 | 90 | 1018.0 |
| 20260506124018 | 48 | 0 | 0.0 | 0.0 | 0.00 | 0.00 | 0.00 | 90 | 1018.0 |
| 20260506123518 | 48 | 0 | 0.0 | 0.0 | 0.00 | 0.00 | 0.00 | 90 | 1018.0 |
| 20260506123035 | 48 | 0 | 0.0 | 0.0 | 0.00 | 0.00 | 0.00 | 90 | 1017.9 |
| 20260506122518 | 48 | 0 | 0.0 | 0.0 | 0.00 | 0.00 | 0.00 | 90 | 1017.9 |
| 20260506122019 | 49 | 0 | 0.0 | 0.0 | 0.00 | 0.00 | 0.00 | 90 | 1017.8 |
| 20260506121533 | 49 | 0 | 0.0 | 0.0 | 0.00 | 0.00 | 0.00 | 90 | 1017.7 |
| 20260506121018 | 49 | 0 | 0.0 | 0.0 | 0.00 | 0.00 | 0.00 | 90 | 1017.7 |
| 20260506120518 | 49 | 0 | 0.0 | 0.0 | 0.00 | 0.00 | 0.00 | 90 | 1017.7 |
| 20260506120043 | 49 | 0 | 0.0 | 0.0 | 0.00 | 0.00 | 0.00 | 90 | 1017.7 |
| 20260506115518 | 49 | 0 | 0.0 | 0.0 | 0.00 | 0.00 | 0.00 | 90 | 1017.7 |
| 20260506115018 | 49 | 0 | 0.0 | 0.0 | 0.00 | 0.00 | 0.00 | 90 | 1017.7 |
| 20260506114535 | 49 | 0 | 0.0 | 0.0 | 0.00 | 0.00 | 0.00 | 90 | 1017.7 |
| 20260506114019 | 49 | 0 | 0.0 | 0.0 | 0.00 | 0.00 | 0.00 | 90 | 1017.7 |
| 20260506113519 | 49 | 0 | 0.0 | 0.0 | 0.00 | 0.00 | 0.00 | 90 | 1017.6 |
| 20260506113035 | 49 | 0 | 0.0 | 0.0 | 0.00 | 0.00 | 0.00 | 89 | 1017.6 |
| 20260506112518 | 49 | 0 | 0.0 | 0.0 | 0.00 | 0.00 | 0.00 | 89 | 1017.6 |
| 20260506112018 | 49 | 0 | 0.0 | 0.0 | 0.00 | 0.00 | 0.00 | 89 | 1017.6 |
| 20260506111539 | 50 | 0 | 0.0 | 0.0 | 0.00 | 0.00 | 0.00 | 89 | 1017.6 |
| 20260506111019 | 50 | 0 | 0.0 | 0.0 | 0.00 | 0.00 | 0.00 | 90 | 1017.6 |
| 20260506110518 | 50 | 0 | 0.0 | 0.0 | 0.00 | 0.00 | 0.00 | 90 | 1017.6 |
| 20260506110035 | 50 | 0 | 0.0 | 0.0 | 0.00 | 0.00 | 0.00 | 90 | 1017.6 |
| 20260506105518 | 50 | 0 | 0.0 | 0.0 | 0.00 | 0.00 | 0.00 | 90 | 1017.5 |
| 20260506105019 | 50 | 0 | 0.0 | 0.0 | 0.00 | 0.00 | 0.00 | 89 | 1017.6 |
| 20260506104538 | 50 | 0 | 0.0 | 0.0 | 0.00 | 0.00 | 0.00 | 89 | 1017.6 |
| 20260506104018 | 50 | 0 | 0.0 | 0.0 | 0.00 | 0.00 | 0.00 | 89 | 1017.6 |
| 20260506103519 | 50 | 0 | 0.0 | 0.0 | 0.00 | 0.00 | 0.00 | 89 | 1017.6 |
| 20260506103046 | 50 | 0 | 0.0 | 0.0 | 0.00 | 0.00 | 0.00 | 88 | 1017.6 |
| 20260506102520 | 50 | 0 | 0.0 | 0.0 | 0.00 | 0.00 | 0.00 | 88 | 1017.7 |
| 20260506102019 | 50 | 0 | 0.0 | 0.0 | 0.00 | 0.00 | 0.00 | 88 | 1017.6 |
| 20260506101532 | 50 | 0 | 0.0 | 0.0 | 0.00 | 0.00 | 0.00 | 87 | 1017.6 |
| 20260506101022 | 51 | 0 | 0.0 | 0.0 | 0.00 | 0.00 | 0.00 | 87 | 1017.6 |
| 20260506100522 | 51 | 0 | 0.0 | 0.0 | 0.00 | 0.00 | 0.00 | 86 | 1017.6 |
| 20260506100035 | 51 | 0 | 0.0 | 0.0 | 0.00 | 0.00 | 0.00 | 86 | 1017.6 |
| 20260506095518 | 51 | 0 | 0.0 | 0.0 | 0.00 | 0.00 | 0.00 | 86 | 1017.6 |
| 20260506095020 | 51 | 0 | 0.0 | 0.0 | 0.00 | 0.00 | 0.00 | 87 | 1017.6 |
| 20260506094536 | 52 | 0 | 0.0 | 0.0 | 0.00 | 0.00 | 0.00 | 87 | 1017.7 |
| 20260506094018 | 52 | 0 | 0.0 | 0.0 | 0.00 | 0.00 | 0.00 | 87 | 1017.6 |
| 20260506093522 | 52 | 0 | 0.0 | 0.0 | 0.00 | 0.00 | 0.00 | 87 | 1017.7 |
| 20260506093035 | 52 | 0 | 0.0 | 0.0 | 0.00 | 0.00 | 0.00 | 87 | 1017.7 |
| 20260506092519 | 52 | 0 | 0.0 | 0.0 | 0.00 | 0.00 | 0.00 | 87 | 1017.7 |
| 20260506092019 | 53 | 0 | 0.0 | 0.0 | 0.00 | 0.00 | 0.00 | 86 | 1017.6 |
| 20260506091536 | 53 | 0 | 0.0 | 0.0 | 0.00 | 0.00 | 0.00 | 86 | 1017.7 |
| 20260506091019 | 53 | 0 | 0.0 | 0.0 | 0.00 | 0.00 | 0.00 | 86 | 1017.7 |
| 20260506090519 | 53 | 0 | 0.0 | 0.0 | 0.00 | 0.00 | 0.00 | 85 | 1017.8 |
| 20260506090044 | 53 | 0 | 0.0 | 0.0 | 0.00 | 0.00 | 0.00 | 85 | 1017.7 |
| 20260506085521 | 54 | 0 | 0.0 | 0.0 | 0.00 | 0.00 | 0.00 | 85 | 1017.8 |
| 20260506085018 | 54 | 0 | 0.0 | 0.0 | 0.00 | 0.00 | 0.00 | 85 | 1017.7 |
| 20260506084536 | 54 | 0 | 0.0 | 0.0 | 0.00 | 0.00 | 0.00 | 85 | 1017.8 |
| 20260506084018 | 54 | 0 | 0.0 | 0.0 | 0.00 | 0.00 | 0.00 | 85 | 1017.9 |
| 20260506083516 | 55 | 0 | 0.0 | 0.0 | 0.00 | 0.00 | 0.00 | 85 | 1018.0 |
| 20260506083037 | 55 | 0 | 0.0 | 2.0 | 0.00 | 0.00 | 0.00 | 84 | 1018.0 |
| 20260506082516 | 55 | 0 | 0.0 | 2.0 | 0.00 | 0.00 | 0.00 | 84 | 1017.9 |
| 20260506082022 | 55 | 0 | 0.0 | 2.0 | 0.00 | 0.00 | 0.00 | 83 | 1017.9 |
| 20260506081539 | 55 | 0 | 0.0 | 0.0 | 0.00 | 0.00 | 0.00 | 83 | 1018.0 |
| 20260506081019 | 56 | 0 | 0.0 | 0.0 | 0.00 | 0.00 | 0.00 | 83 | 1018.0 |
| 20260506080520 | 56 | 0 | 0.0 | 3.0 | 0.00 | 0.00 | 0.00 | 83 | 1018.0 |
| 20260506073518 | 56 | 0 | 0.0 | 0.0 | 0.00 | 0.00 | 0.00 | 82 | 1017.9 |
| 20260506073035 | 56 | 0 | 0.0 | 0.0 | 0.00 | 0.00 | 0.00 | 82 | 1018.0 |
| 20260506072518 | 56 | 0 | 0.0 | 0.0 | 0.00 | 0.00 | 0.00 | 82 | 1017.9 |
| 20260506072018 | 56 | 0 | 0.0 | 0.0 | 0.00 | 0.00 | 0.00 | 82 | 1018.0 |
| 20260506071535 | 56 | 0 | 0.0 | 0.0 | 0.00 | 0.00 | 0.00 | 81 | 1018.0 |
| 20260506071022 | 56 | 0 | 0.0 | 0.0 | 0.00 | 0.00 | 0.00 | 81 | 1018.0 |
| 20260506070518 | 57 | 0 | 0.0 | 7.0 | 0.00 | 0.00 | 0.00 | 81 | 1018.0 |